Regional Weather Roundup
Issued by NWS

Home | Current Version | Previous Version | Graphics & Text | Print | Product List | Glossary On
Versions: 1 2 3 4 5 6 7 8 9 10 11 12 13 14 15 16 17 18 19 20 21 22 23 24 25 26 27 28 29 30 31 32 33 34 35 36 37 38 39 40 41 42 43 44 45 46 47 48 49 50
170
ASUS43 KTOP 282308
RWRKS

WEATHER ROUNDUP FOR KANSAS
NATIONAL WEATHER SERVICE GOODLAND KS
600 PM CDT THU JUL 28 2016

NOTE:  "FAIR" INDICATES FEW OR NO CLOUDS BELOW 12,000 FEET WITH NO
SIGNIFICANT WEATHER AND/OR OBSTRUCTIONS TO VISIBILITY.

KSZ001>006-013>018-027>032-041>047-290000-
NORTHWEST KANSAS

CITY           SKY/WX    TMP DP  RH WIND       PRES   REMARKS
GOODLAND       MOSUNNY   84  61  45 SE9       30.08R
HAYS           CLOUDY    88  64  45 NE3       29.99R
HILL CITY      PTSUNNY   71  61  70 NE9G22    30.03F
RUSSELL        TSTM      67  63  87 N28G47    30.02R FOG
$$

KSZ061>065-074>080-084>089-290000-
SOUTHWEST KANSAS

CITY           SKY/WX    TMP DP  RH WIND       PRES   REMARKS
DODGE CITY     SUNNY     90  60  36 S7        29.99R
ELKHART          N/A     86  62  44 S9          N/A
GARDEN CITY    SUNNY     90  60  36 SE8       30.00R
GREAT BEND     MOSUNNY   88  68  51 CALM      29.97R
LIBERAL        SUNNY     93  55  27 S10       29.98F
PRATT          SUNNY     90  60  35 E7        29.94R
$$

KSZ066>073-081>083-090>101-290000-
SOUTHEAST KANSAS

CITY           SKY/WX    TMP DP  RH WIND       PRES   REMARKS
CHANUTE        PTSUNNY   88  72  58 CALM      29.93S
COFFEYVILLE    CLOUDY    87  75  67 SW5       29.91F HX  96
HUTCHINSON     SUNNY     92  67  43 E12       29.93R HX  95
MEDICINE LODGE   N/A     96  58  27 VRB6      29.90F HX  95
NEWTON         SUNNY     88  67  49 SE8       29.95S
PARSONS        CLOUDY    87  75  67 CALM      29.93F HX  96
WICHITA INTL   MOSUNNY   90  71  53 SE18      29.93S HX  96
WICHITA JABRA  CLOUDY    88  72  58 SE13      29.94S
WINFIELD       CLOUDY    82  70  66 SE9       29.94F
$$

KSZ007>012-019>026-033>040-048>060-102>105-290000-
NORTHEAST KANSAS

CITY           SKY/WX    TMP DP  RH WIND       PRES   REMARKS
CONCORDIA      CLOUDY    85  66  53 NE5       29.97R
EMPORIA        SUNNY     89  65  44 CALM      29.93F
LAWRENCE       SUNNY     89  70  53 NE6       29.90F
MANHATTAN      MOSUNNY   88  70  55 CALM      29.92R
MARYSVILLE     MOSUNNY   88  64  45 NE10      29.96S
OLATHE IND     SUNNY     89  68  49 VRB6      29.93S
OLATHE EXE     MOSUNNY   88  65  46 NW7       29.93R
SALINA         SUNNY     92  64  39 SE9       29.94R
TOPEKA BILLARD SUNNY     89  67  47 NE7       29.91S
TOPEKA FORBES  SUNNY     90  68  48 E6        29.92S
$$




USA.gov is the U.S. government's official web portal to all federal, state and local government web resources and services.